Location: *
(2.5500°S, 65.9667°W)
Time: 17:02:10
(UTC+00:00)

A-11 Canister half - Pass Details

Date: 21 April 2024
Orbit: 1525 x 1683 km, 47.3° (Epoch: 21 May)

Event Time Altitude Azimuth Distance (km) Brightness Sun altitude
Exits shadow 08:04:50 36° 330° (NNW) 2,358 9.7 -34.2°
Drops below altitude 10° 08:12:09 10° 15° (NNE) 3,882 11.4 -32.4°
Sets 08:15:40 0° 23° (NNE) 4,885 12.1 -31.5°
